Regional Weather Roundup
Issued by NWS Memphis, TN

Home | Current Version | Previous Version | Text Only | Print | Product List | Glossary On
Versions: 1 2 3 4 5 6 7 8 9 10 11 12 13 14 15 16 17 18 19 20 21 22 23 24 25 26 27 28 29 30 31 32 33 34 35 36 37 38 39 40 41 42 43 44 45 46 47 48 49 50
000
ASUS44 KMEG 191810
RWRMEG
MEMPHIS CWA HOURLY WEATHER ROUNDUP
NATIONAL WEATHER SERVICE MEMPHIS TN
100 PM CDT SAT APR 19 2014

...WEST TENNESSEE...

CITY           SKY/WX    TMP DP  RH WIND       PRES   REMARKS
MEMPHIS INTL   MOSUNNY   76  42  29 VRB7      30.19F
6HR MIN TEMP:  53; 6HR MAX TEMP:  76;

NWS MEMPHIS      N/A     76 N/A N/A MISG        N/A
JACKSON        SUNNY     77  39  25 NE14G20   30.19F
6HR MIN TEMP:  45; 6HR MAX TEMP:  77;

LEXINGTON      SUNNY     73  37  27 NE10      30.17F
SILERTON         N/A     77  38  25 E5          N/A
SAVANNAH       SUNNY     77  40  26 N12       30.17F
DYERSBURG      SUNNY     73  43  33 N9        30.22F
6HR MIN TEMP:  54; 6HR MAX TEMP:  73;

UNION CITY     SUNNY     73  41  31 N3        30.20F
PARIS          SUNNY     72  40  31 NE10      30.20F


...EASTERN ARKANSAS...

CITY           SKY/WX    TMP DP  RH WIND       PRES   REMARKS
JONESBORO      SUNNY     74  42  31 E7        30.21F
6HR MIN TEMP:  53; 6HR MAX TEMP:  75;

WEST MEMPHIS   SUNNY     76  45  33 NE12G18   30.19F
6HR MIN TEMP:  52; 6HR MAX TEMP:  76;

BATESVILLE     SUNNY     73  45  35 SE5       30.21F
6HR MIN TEMP:  46; 6HR MAX TEMP:  73;

NEWPORT        SUNNY     73  46  38 E7        30.23F
6HR MIN TEMP:  50; 6HR MAX TEMP:  74;

WALNUT RIDGE   SUNNY     73  48  40 E5        30.23F
6HR MIN TEMP:  48; 6HR MAX TEMP:  73;

BLYTHEVILLE    SUNNY     75  45  34 NE6       30.22F
6HR MIN TEMP:  49; 6HR MAX TEMP:  76;

SEARCY         SUNNY     76  49  38 W5        30.23F
6HR MIN TEMP:  48; 6HR MAX TEMP:  76;

STUTTGART      SUNNY     73  54  49 S3        30.23F
6HR MIN TEMP:  52; 6HR MAX TEMP:  73;

PINE BLUFF     MOSUNNY   73  51  46 VRB6      30.21F
6HR MIN TEMP:  50; 6HR MAX TEMP:  74;

MONTICELLO     MOSUNNY   74  49  41 VRB3      30.20F
6HR MIN TEMP:  50; 6HR MAX TEMP:  75;



...NORTH MISSISSIPPI...

CITY           SKY/WX    TMP DP  RH WIND       PRES   REMARKS
TUPELO         SUNNY     75  41  29 NE7       30.16F
6HR MIN TEMP:  48; 6HR MAX TEMP:  76;

OXFORD         SUNNY     73  45  35 CALM      30.19F
OLIVE BRANCH   MOSUNNY   73  43  33 N10       30.20F
TUNICA         SUNNY     73  48  40 N9        30.20F
CLARKSDALE       N/A     75  48  38 N10       30.20F
CORINTH        SUNNY     73  36  25 NE5G17    30.17F
GRENADA        SUNNY     73  46  38 NE10      30.18F
GREENWOOD      SUNNY     74  50  42 CALM      30.18F
6HR MIN TEMP:  49; 6HR MAX TEMP:  75;

COLUMBUS       SUNNY     77  44  30 N13G18    30.14F
6HR MIN TEMP:  46; 6HR MAX TEMP:  77;

STARKVILLE     FAIR      73  45  35 NW6       30.16F
GOLDEN TRIANGL SUNNY     75  48  38 NE12G18   30.18F


...SOUTHEAST MISSOURI...

CITY           SKY/WX    TMP DP  RH WIND       PRES   REMARKS
DONIPHAN         N/A     73  42  32 SE5         N/A
WEST PLAINS    SUNNY     71  43  36 VRB6      30.24F
6HR MIN TEMP:  45; 6HR MAX TEMP:  71;

POPLAR BLUFF   SUNNY     74  42  31 E9        30.22F
6HR MIN TEMP:  47; 6HR MAX TEMP:  74;

CAPE GIRARDEAU SUNNY     74  44  34 SE7       30.23F
6HR MIN TEMP:  46; 6HR MAX TEMP:  74;



...NORTHWEST ALABAMA...

CITY           SKY/WX    TMP DP  RH WIND       PRES   REMARKS
MUSCLE SHOALS  SUNNY     75  41  29 E10G18    30.17F
6HR MIN TEMP:  49; 6HR MAX TEMP:  75;



...MIDDLE TENNESSEE...

CITY           SKY/WX    TMP DP  RH WIND       PRES   REMARKS
NASHVILLE      MOSUNNY   75  41  29 NE17      30.18F
6HR MIN TEMP:  52; 6HR MAX TEMP:  75;

CLARKSVILLE    SUNNY     72  44  36 NE15      30.20F
6HR MIN TEMP:  48; 6HR MAX TEMP:  72;

DICKSON        SUNNY     72  37  28 NE12      30.19F
COLUMBIA       SUNNY     73  54  49 NE16      30.17F
LEWISBURG      SUNNY     73  40  30 NE14      30.17F


...WESTERN KENTUCKY...

CITY           SKY/WX    TMP DP  RH WIND       PRES   REMARKS
PADUCAH        SUNNY     77  42  28 NE10      30.21F
6HR MIN TEMP:  50; 6HR MAX TEMP:  77;

FORT CAMPBELL  SUNNY     73  41  31 NE9       30.20F


...CENTRAL ARKANSAS...

CITY           SKY/WX    TMP DP  RH WIND       PRES   REMARKS
LITTLE ROCK    PTSUNNY   75  50  41 VRB5      30.22F
6HR MIN TEMP:  52; 6HR MAX TEMP:  75;



SKY/WX REPORTED AS FAIR MEANS FEW OR NO CLOUDS BELOW
12 THOUSAND FEET.




USA.gov is the U.S. government's official web portal to all federal, state and local government web resources and services.